Flag for Canada Weather past 2 weeks in Kuujjuaq, Quebec, Canada

Now
61 °F

Broken clouds.


Feels Like: 61 °F
Forecast: N/A
Wind: 8 mph from East

Location: Kuujjuaq

Current Time: Jul 1, 2015 at 6:04:29 PM

Latest Report: Jul 1, 2015 at 5:00 PM


Visibility: 15 mi

Pressure: 29.99 "Hg

Humidity: 48%

Dew point: 41 °F

Location of KuujjuaqLocation

Historic Weather in Kuujjuaq — Graph

°F

Kuujjuaq temperature yesterday

Maximum temperature yesterday: 50 °F (at 6:00 PM)
Minimum temperature yesterday: 41 °F (at 2:00 AM)
Average temperature yesterday: 45 °F

Past Weeks' High & Low Weather Summary

 TemperatureHumidityPressure
High73 °F (Jun 26, 4:00 PM)100% (Jun 18, 10:00 PM)30.02 "Hg (Jun 18, 10:00 PM)
Low36 °F (Jun 17, 4:00 AM)26% (Jun 22, 3:00 PM)29.41 "Hg (Jun 20, 2:00 PM)
Average47 °F76%29.75 "Hg
* Reported Jun 16 5:00 PM — Jul 1 5:00 PM, Kuujjuaq, Weather by CustomWeather, © 2015

Note: Actual official high and low records may vary slightly from our data, if they occured in-between our weather recording intervals... More about our weather records

Advertising

Kuujjuaq weather history for previous 24 hours

 ConditionsComfort  
Time TempWeatherWind HumidityBarometerVisibility
5:00 PM
Wed, Jul 1
61 °FBroken clouds.8 mph48%29.99 "Hg15 mi
4:00 PM61 °FBroken clouds.6 mph48%29.98 "Hg15 mi
3:00 PM59 °FPartly sunny.5 mph48%29.99 "Hg15 mi
2:00 PM61 °FMostly cloudy.7 mph52%29.98 "Hg15 mi
1:00 PM57 °FBroken clouds.5 mph51%29.99 "Hg15 mi
12:00 PM57 °FPartly sunny.2 mph55%29.99 "Hg15 mi
11:00 AM57 °FPartly sunny.7 mph51%30.00 "Hg15 mi
10:00 AM54 °FScattered clouds.6 mph54%30.01 "Hg15 mi
9:00 AM50 °FPartly sunny.3 mph71%30.02 "Hg15 mi
8:00 AM46 °FBroken clouds.3 mph87%30.02 "Hg15 mi
7:00 AM43 °FPartly sunny.2 mph100%30.01 "Hg15 mi
6:00 AM41 °FBroken clouds.2 mph93%30.00 "Hg15 mi
5:00 AM39 °FPartly sunny.No wind93%29.98 "Hg15 mi
4:00 AM39 °FFog.No wind93%29.98 "Hg15 mi
3:00 AM39 °FFog.No wind93%29.97 "Hg15 mi
2:00 AM37 °FPassing clouds.3 mph93%29.96 "Hg15 mi
1:00 AM39 °FPassing clouds.5 mph93%29.95 "Hg15 mi
12:00 AM39 °FPassing clouds.2 mph87%29.94 "Hg15 mi
11:00 PM
Tue, Jun 30
41 °FPassing clouds.No wind87%29.93 "Hg15 mi
10:00 PM45 °FPartly sunny.No wind81%29.92 "Hg15 mi
9:00 PM46 °FBroken clouds.3 mph76%29.91 "Hg15 mi
8:00 PM48 °FBroken clouds.7 mph76%29.90 "Hg15 mi
7:00 PM50 °FBroken clouds.3 mph71%29.89 "Hg15 mi
6:00 PM50 °FBroken clouds.6 mph71%29.89 "Hg15 mi
Weather by CustomWeather, © 2015

See weather overviewHow to use our weather pages